Location: Davayat
(45.9471°N, 3.1105°E)
Time: 17:25:02
(UTC+00:00)

Cosmos 1535 Rocket - Pass Details

Date: 01 December 2020
Orbit: 949 x 1003 km, 83.0° (Epoch: 22 January)

Event Time Altitude Azimuth Distance (km) Brightness Sun altitude
Rises 18:36:49 0° 352° (N) 3,636 7.5 -25.8°
Reaches altitude 10° 18:39:19 10° 353° (N) 2,684 6.8 -26.2°
Maximum altitude 18:45:28 81° 81° (E) 966 4.3 -27.3°
Drops below altitude 10° 18:51:35 10° 170° (S) 2,673 6.7 -28.4°
Sets 18:54:04 0° 171° (S) 3,619 7.4 -28.8°
